Weather History for KOFP - August, 2013

Change the Weather History Date:

Saturday, August 10, 2013

  Actual Average Record
Temperature  
Mean Temperature 76 °F -  
Max Temperature 84 °F 87 °F 100 °F (2010)
Min Temperature 69 °F 66 °F 55 °F (1999)
Cooling Degree Days 12    
Growing Degree Days 26 (Base 50)    
Moisture  
Dew Point 71 °F    
Average Humidity 90    
Maximum Humidity 100    
Minimum Humidity 65    
Precipitation  
Precipitation 0.70 in - - ()
Sea Level Pressure  
Sea Level Pressure 30.07 in    
Wind  
Wind Speed 4 mph (West)    
Max Wind Speed 13 mph    
Max Gust Speed 24 mph    
Visibility 4 miles    
Events Fog , Rain , Thunderstorm    
Averages and records for this station are not official NWS values.
T = Trace of Precipitation, MM = Missing Value Source: NWS Daily Summary

Daily Weather History Graph

Daily Weather History Graph

Search for Another Location

Airport or City:

Trip Planner

Search our weather history database for the weather conditions in past years. The results will help you decide how hot, cold, wet, or windy it might be!

Date:

Astronomy

Aug. 10, 2013 Rise Set
Actual Time 6:21 AM EDT 8:08 PM EDT
Civil Twilight 5:52 AM EDT 8:36 PM EDT
Nautical Twilight 5:18 AM EDT 9:10 PM EDT
Astronomical Twilight 4:42 AM EDT 9:47 PM EDT
Moon 10:00 AM EDT (8/10) 9:54 PM EDT (8/10)
Length of Visible Light 14h 43m
Length of Day
13h 46m
Waxing Crescent, 14% of the Moon is Illuminated
Aug 10
Waxing Crescent
Aug 14
First Quarter
Aug 20
Full
Aug 28
Last Quarter
Sep 5
New

Hourly Weather History & Observations

Time (EDT) Temp. Heat Index Dew Point Humidity Pressure Visibility Wind Dir Wind Speed Gust Speed Precip Events Conditions
12:54 AM 81.0 °F 86.2 °F 73.9 °F 79% 29.99 in 9.0 mi SW 8.1 mph - N/A   Clear
1:54 AM 80.1 °F 84.5 °F 73.9 °F 81% 29.99 in 9.0 mi SW 6.9 mph - N/A   Clear
2:54 AM 79.0 °F - 73.9 °F 84% 29.99 in 9.0 mi WSW 4.6 mph - N/A   Clear
3:54 AM 78.1 °F - 73.0 °F 84% 29.99 in 9.0 mi SW 5.8 mph - N/A   Clear
4:54 AM 77.0 °F - 72.0 °F 84% 30.00 in 10.0 mi SW 3.5 mph - N/A   Clear
5:54 AM 73.9 °F - 72.0 °F 93% 30.02 in 7.0 mi Calm Calm - N/A   Clear
6:54 AM 73.0 °F - 72.0 °F 96% 30.04 in 4.0 mi Calm Calm - N/A   Clear
7:54 AM 78.1 °F - 73.0 °F 84% 30.04 in 8.0 mi Calm Calm - N/A   Clear
8:54 AM 81.0 °F 85.8 °F 73.0 °F 77% 30.06 in 9.0 mi Calm Calm - N/A   Clear
9:54 AM 82.0 °F 86.7 °F 72.0 °F 71% 30.06 in 10.0 mi Variable 3.5 mph - N/A   Scattered Clouds
10:54 AM 82.9 °F 87.5 °F 71.1 °F 67% 30.07 in 10.0 mi NE 4.6 mph - N/A   Mostly Cloudy
11:06 AM 84.2 °F 89.6 °F 71.6 °F 66% 30.08 in 10.0 mi East 5.8 mph - N/A   Partly Cloudy
11:54 AM 82.9 °F 87.5 °F 71.1 °F 67% 30.06 in 10.0 mi East 3.5 mph - N/A   Scattered Clouds
12:54 PM 84.0 °F 89.0 °F 71.1 °F 65% 30.06 in 10.0 mi Variable 5.8 mph - N/A   Mostly Cloudy
1:28 PM 82.4 °F 87.2 °F 71.6 °F 70% 30.05 in 9.0 mi Variable 6.9 mph - N/A Thunderstorm Overcast
1:52 PM 71.6 °F - 69.8 °F 94% 30.09 in 1.5 mi SW 12.7 mph 24.2 mph 0.11 in Rain , Thunderstorm Heavy Thunderstorms and Rain
1:54 PM 71.1 °F - 69.1 °F 93% 30.09 in 1.0 mi SW 9.2 mph 24.2 mph 0.19 in Rain , Thunderstorm Heavy Thunderstorms and Rain
1:58 PM 71.6 °F - 69.8 °F 94% 30.09 in 0.5 mi Variable 3.5 mph - 0.12 in Fog , Rain , Thunderstorm Heavy Thunderstorms and Rain
2:05 PM 69.8 °F - 69.8 °F 100% 30.07 in 0.8 mi Calm Calm - 0.17 in Rain , Thunderstorm Heavy Thunderstorms and Rain
2:10 PM 69.8 °F - 69.8 °F 100% 30.07 in 1.5 mi Calm Calm - 0.21 in Rain , Thunderstorm Thunderstorms and Rain
2:22 PM 71.6 °F - 69.8 °F 94% 30.07 in 3.0 mi Calm Calm - 0.22 in Rain , Thunderstorm Light Rain
2:33 PM 71.6 °F - 69.8 °F 94% 30.07 in 4.0 mi North 6.9 mph - 0.22 in Rain Light Rain
2:41 PM 71.6 °F - 69.8 °F 94% 30.07 in 4.0 mi Variable 4.6 mph - 0.22 in   Overcast
2:50 PM 73.4 °F - 69.8 °F 88% 30.07 in 4.0 mi Variable 3.5 mph - 0.22 in   Overcast
2:54 PM 73.0 °F - 70.0 °F 90% 30.06 in 4.0 mi North 4.6 mph - 0.22 in   Overcast
3:15 PM 73.4 °F - 69.8 °F 88% 30.06 in 7.0 mi NNW 3.5 mph - N/A   Mostly Cloudy
3:54 PM 72.0 °F - 69.1 °F 91% 30.06 in 6.0 mi Variable 3.5 mph - N/A   Overcast
4:20 PM 71.6 °F - 69.8 °F 94% 30.09 in 1.8 mi West 9.2 mph - 0.08 in Rain Heavy Rain
4:23 PM 71.6 °F - 69.8 °F 94% 30.08 in 0.8 mi Variable 5.8 mph - 0.16 in Rain Heavy Rain
4:37 PM 71.6 °F - 69.8 °F 94% 30.07 in 1.5 mi NNE 3.5 mph - 0.29 in Rain Light Rain
4:42 PM 71.6 °F - 69.8 °F 94% 30.07 in 2.5 mi Calm Calm - 0.29 in Rain Light Rain
4:50 PM 71.6 °F - 71.6 °F 100% 30.06 in 4.0 mi Calm Calm - 0.29 in   Overcast
4:54 PM 73.0 °F - 71.1 °F 93% 30.06 in 5.0 mi Calm Calm - 0.29 in   Overcast
5:54 PM 75.0 °F - 71.1 °F 87% 30.05 in 8.0 mi Calm Calm - N/A   Mostly Cloudy
6:54 PM 77.0 °F - 71.1 °F 82% 30.06 in 9.0 mi Calm Calm - N/A   Partly Cloudy
7:54 PM 73.0 °F - 72.0 °F 96% 30.07 in 3.0 mi Calm Calm - N/A   Clear
8:02 PM 73.4 °F - 71.6 °F 94% 30.07 in 2.5 mi Calm Calm - N/A   Clear
8:16 PM 71.6 °F - 71.6 °F 100% 30.07 in 1.0 mi Calm Calm - N/A   Clear
8:23 PM 71.6 °F - 71.6 °F 100% 30.07 in 0.5 mi Calm Calm - N/A Fog Fog
8:33 PM 71.6 °F - 71.6 °F 100% 30.07 in 0.5 mi Calm Calm - N/A Fog Fog
8:54 PM 71.1 °F - 70.0 °F 96% 30.08 in 1.0 mi Calm Calm - N/A   Mist
9:16 PM 71.6 °F - 69.8 °F 94% 30.09 in 0.8 mi Calm Calm - N/A   Mist
9:40 PM 71.6 °F - 69.8 °F 94% 30.10 in 1.2 mi Calm Calm - N/A   Partly Cloudy
9:54 PM 71.1 °F - 70.0 °F 96% 30.10 in 1.0 mi Calm Calm - N/A   Clear
10:01 PM 71.6 °F - 69.8 °F 94% 30.10 in 0.8 mi Calm Calm - N/A   Clear
10:11 PM 69.8 °F - 69.8 °F 100% 30.11 in 1.2 mi Calm Calm - N/A   Clear
10:19 PM 69.8 °F - 69.8 °F 100% 30.11 in 0.8 mi Calm Calm - N/A   Mist
10:30 PM 69.8 °F - 69.8 °F 100% 30.11 in 1.2 mi Calm Calm - N/A   Partly Cloudy
10:43 PM 69.8 °F - 69.8 °F 100% 30.11 in 2.0 mi Calm Calm - N/A   Partly Cloudy
10:54 PM 71.1 °F - 70.0 °F 96% 30.11 in 2.5 mi Calm Calm - N/A   Partly Cloudy
11:02 PM 71.6 °F - 71.6 °F 100% 30.12 in 5.0 mi Calm Calm - N/A   Partly Cloudy
11:26 PM 71.6 °F - 69.8 °F 94% 30.11 in 1.8 mi Calm Calm - N/A   Scattered Clouds
11:30 PM 71.6 °F - 69.8 °F 94% 30.11 in 0.8 mi Calm Calm - N/A   Scattered Clouds
11:41 PM 71.6 °F - 69.8 °F 94% 30.11 in 1.5 mi Calm Calm - N/A   Mostly Cloudy
11:51 PM 71.6 °F - 69.8 °F 94% 30.11 in 0.8 mi Calm Calm - N/A   Overcast
11:54 PM 71.1 °F - 70.0 °F 96% 30.11 in 0.8 mi Calm Calm - N/A   Overcast